Overview Statistics Trail Chart Weather Telemetry Raw packets
 

This is the latest recevied weather packets stored in our database for station/object PA3DZX-13. If no packets are shown the sender has not sent any weather packets the latest 10 day(s).

<< 2 3 4 5 6 7 8 >>
Time Temp. Humidity Pressure Rain* Wind** Luminosity Snow
1788532807 16.67° C 93% 1010 hPa 0 mm - - -
1788531908 16.67° C 94% 1009.6 hPa 2.03 mm - - -
1788531007 16.67° C 93% 1009.8 hPa 5.08 mm - - -
1788530106 16.67° C 93% 1010 hPa 3.56 mm - - -
1788529205 16.67° C 93% 1009.7 hPa 1.78 mm - - -
1788528305 16.67° C 93% 1009.6 hPa 2.03 mm - - -
1788527404 16.67° C 94% 1009.8 hPa 4.06 mm - - -
1788526505 16.67° C 93% 1009.7 hPa 2.03 mm - - -
1788525603 16.67° C 92% 1009.7 hPa 0.76 mm - - -
1788524703 17.78° C 90% 1009.5 hPa 0.25 mm - - -
1788523803 17.78° C 90% 1009.3 hPa 1.02 mm - - -
1788522902 17.78° C 88% 1009.5 hPa 2.29 mm - - -
1788522001 18.89° C 91% 1009.1 hPa 7.37 mm - - -
1788521102 20° C 87% 1008.8 hPa 1.27 mm - - -
1788520201 20.56° C 80% 1008.6 hPa 0 mm - - -
1788519301 20.56° C 80% 1008.6 hPa 0 mm - - -
1788518400 20.56° C 85% 1008.8 hPa 0 mm - - -
1788517500 20° C 88% 1008.8 hPa 0 mm - - -
1788516599 18.89° C 91% 1009.1 hPa 0.51 mm - - -
1788515699 18.89° C 90% 1009.2 hPa 0.76 mm - - -
1788514798 18.89° C 90% 1009.2 hPa 0.76 mm - - -
1788513899 20° C 86% 1009 hPa 0.25 mm - - -
1788512998 20° C 83% 1009.2 hPa 0 mm - - -
1788512098 20° C 80% 1009 hPa 0 mm - - -
1788511197 20° C 81% 1009 hPa 0 mm - - -

* Rain latest hour (hover to see other rain measurements)
** Current wind speed in m/s (hover to see current wind gust speed)